User: anonymous   Login
Location: Unspecified
(0.0000°N, 0.0000°E)
Time: 10:40:02
(UTC+00:00)
Language:

Tiangong 2 - Orbit

View from above orbital plane
View from above orbital plane
View from above satellite
View from above satellite

Ground track
Ground track

The orbit data is extracted from the following two-line orbital elements,

1 41765U 16057A   17179.77893624 +.00003759 +00000-0 +53693-4 0  9997
2 41765 042.7842 285.8428 0003840 308.8338 186.6208 15.57952024044792
Epoch (UTC): 28 June 2017 18:41:40
Eccentricity: 0.0003840
inclination: 42.7842°
perigee height: 391 km
apogee height: 396 km
right ascension of ascending node: 285.8428°
argument of perigee: 308.8338°
revolutions per day: 15.57952024
mean anomaly at epoch: 186.6208°
orbit number at epoch: 4479

The dashed part of the orbit path shows where the satellite is in the earth's shadow,  

DLR